Flag for Germany Weather past 2 weeks in Gelsenkirchen, North Rhine-Westphalia, Germany

Now
53 °F

Passing clouds.


Feels Like: 52 °F
Forecast: 42 / 55 °F
Wind: 5 mph from Southwest

Location: Duesseldorf

Current Time: Oct 21, 2014 at 1:01:10 AM

Latest Report: Oct 21, 2014 at 12:00 AM


Visibility: 19 mi

Pressure: 29.95 "Hg

Humidity: 92%

Dew point: 51 °F

Location of GelsenkirchenLocation

Historic Weather in Gelsenkirchen — Graph

°F

Gelsenkirchen temperature yesterday

Maximum temperature yesterday: 62 °F (at 4:00 PM)
Minimum temperature yesterday: 53 °F (at 5:00 AM)
Average temperature yesterday: 58 °F

Past Weeks' High & Low Weather Summary

 TemperatureHumidityPressure
High74 °F (Oct 19, 2:00 PM)99% (Oct 11, 8:00 AM)30.10 "Hg (Oct 11, 8:00 AM)
Low48 °F (Oct 11, 6:00 AM)54% (Oct 14, 3:00 PM)29.50 "Hg (Oct 7, 10:00 AM)
Average58 °F82%29.84 "Hg
* Reported Midnight between Oct 5 and Oct 6 — Midnight between Oct 20 and Oct 21, Gelsenkirchen, Weather by CustomWeather, © 2014

Note: Actual official high and low records may vary slightly from our data, if they occured in-between our weather recording intervals... More about our weather records

Advertising

Gelsenkirchen weather history for previous 24 hours

 ConditionsComfort  
Time TempWeatherWind HumidityBarometerVisibility
12:00 AM
Oct 21
53 °FPassing clouds.5 mph92%29.95 "Hg19 mi
11:00 PM
Oct 20
55 °FOvercast.6 mph90%29.96 "Hg16 mi
10:00 PM56 °FPassing clouds.6 mph87%29.97 "Hg16 mi
9:00 PM56 °FPassing clouds.5 mph87%29.97 "Hg19 mi
8:00 PM58 °FPassing clouds.6 mph77%29.98 "Hg25 mi
7:00 PM54 °FPassing clouds.5 mph85%29.98 "Hg28 mi
6:00 PM60 °FScattered clouds.6 mph75%29.98 "Hg28 mi
4:00 PM62 °FPartly sunny.7 mph65%30.01 "Hg25 mi
3:00 PM61 °FPartly sunny.7 mph72%30.03 "Hg22 mi
2:00 PM61 °FOvercast.8 mph71%30.04 "Hg19 mi
1:00 PM60 °FOvercast.8 mph76%30.05 "Hg17 mi
12:00 PM59 °FPartly sunny.6 mph81%30.06 "Hg12 mi
10:00 AM58 °FOvercast.6 mph84%30.05 "Hg11 mi
9:00 AM56 °FPartly sunny.6 mph85%30.04 "Hg9 mi
8:00 AM57 °FOvercast.6 mph87%30.03 "Hg12 mi
7:00 AM56 °FPassing clouds.6 mph87%30.03 "Hg12 mi
5:00 AM53 °FPassing clouds.5 mph92%30.03 "Hg22 mi
4:00 AM56 °FPassing clouds.5 mph89%30.03 "Hg25 mi
3:00 AM56 °FPassing clouds.5 mph87%30.04 "Hg19 mi
2:00 AM59 °FOvercast.7 mph79%30.03 "Hg25 mi
1:00 AM60 °FOvercast.6 mph78%30.04 "Hg25 mi
Weather by CustomWeather, © 2014

See weather overviewHow to use our weather pages